DW6536 Weather Reports


Display with metric or nautical units.
time (UTC)temp
F
wind
direction
speed
MPH
gust
MPH
rain 1hr
in
rain 24hr
in
rain mn
in
humidity
%
barometer
mb
20220812031519 85 187 1.0 0.0 0.00 0.00 0.00 58 1012.6
20220812030028 86 141 1.0 0.0 0.00 0.00 0.00 57 1012.4
20220812024530 87 183 1.0 0.0 0.00 0.00 0.00 55 1012.2
20220812023045 88 207 2.0 0.0 0.00 0.00 0.00 54 1011.9
20220812021521 89 122 2.0 0.0 0.00 0.00 0.00 52 1011.5
20220812020017 91 126 0.0 0.0 0.00 0.00 0.00 42 1011.2
20220812014517 91 126 0.0 0.0 0.00 0.00 0.00 41 1010.9
20220812013022 92 150 0.0 0.0 0.00 0.00 0.00 40 1010.8
20220812011528 93 150 0.0 0.0 0.00 0.00 0.00 40 1010.6
20220812010015 94 150 0.0 0.0 0.00 0.00 0.00 38 1010.5
20220812004514 95 120 0.0 0.0 0.00 0.00 0.00 37 1010.4
20220812003025 96 120 0.0 0.0 0.00 0.00 0.00 36 1010.3
20220812001529 97 54 1.0 0.0 0.00 0.00 0.00 36 1010.2
20220812000024 97 140 1.0 0.0 0.00 0.00 0.00 36 1010.1
20220811234511 97 54 0.0 0.0 0.00 0.00 0.00 36 1010.1
20220811233015 97 38 0.0 0.0 0.00 0.00 0.00 36 1010.2
20220811231510 98 160 0.0 0.0 0.00 0.00 0.00 36 1010.2
20220811230016 97 287 0.0 0.0 0.00 0.00 0.00 36 1010.2
20220811224509 98 152 1.0 0.0 0.00 0.00 0.00 35 1010.1
20220811223009 98 11 1.0 0.0 0.00 0.00 0.00 36 1010.1
20220811221519 97 25 1.0 0.0 0.00 0.00 0.00 35 1010.3
20220811220013 99 270 1.0 0.0 0.00 0.00 0.00 36 1010.4
20220811214505 99 353 1.0 0.0 0.00 0.00 0.00 35 1010.5
20220811213008 99 22 2.0 0.0 0.00 0.00 0.00 35 1010.8
20220811211504 98 323 1.0 0.0 0.00 0.00 0.00 36 1011.0
20220811210058 99 162 1.0 0.0 0.00 0.00 0.00 35 1011.2
20220811204609 98 29 1.0 0.0 0.00 0.00 0.00 37 1011.5
20220811203055 99 243 1.0 0.0 0.00 0.00 0.00 37 1011.7
20220811201607 97 1 1.0 0.0 0.00 0.00 0.00 38 1011.8
20220811200048 96 9 0.0 0.0 0.00 0.00 0.00 40 1012.1
20220811194546 95 22 1.0 0.0 0.00 0.00 0.00 41 1012.4
20220811193044 95 38 1.0 0.0 0.00 0.00 0.00 42 1012.7
20220811191543 95 79 0.0 0.0 0.00 0.00 0.00 43 1012.8
20220811190040 94 112 1.0 0.0 0.00 0.00 0.00 43 1013.1
20220811184546 94 37 1.0 0.0 0.00 0.00 0.00 43 1013.2
20220811183053 95 296 1.0 0.0 0.00 0.00 0.00 42 1013.5
20220811181540 95 81 1.0 0.0 0.00 0.00 0.00 43 1013.9
20220811180044 96 245 1.0 0.0 0.00 0.00 0.00 42 1014.2
20220811174551 96 271 1.0 0.0 0.00 0.00 0.00 40 1014.4
20220811173030 96 221 1.0 0.0 0.00 0.00 0.00 41 1014.7
20220811171528 95 35 1.0 0.0 0.00 0.00 0.00 42 1014.9
20220811170025 95 328 1.0 0.0 0.00 0.00 0.00 44 1015.1
20220811164526 94 39 1.0 0.0 0.00 0.00 0.00 47 1015.2
20220811163022 91 243 1.0 0.0 0.00 0.00 0.00 51 1015.3
20220811161516 90 47 1.0 0.0 0.00 0.00 0.00 53 1015.4
20220811160012 88 280 1.0 0.0 0.00 0.00 0.00 57 1015.4
20220811154509 87 260 1.0 0.0 0.00 0.00 0.00 59 1015.3
20220811153007 86 355 1.0 0.0 0.00 0.00 0.00 60 1015.2
20220811151522 85 4 0.0 0.0 0.00 0.00 0.00 62 1015.2
20220811150107 83 29 0.0 0.0 0.00 0.00 0.00 65 1015.3
20220811144557 82 297 0.0 0.0 0.00 0.00 0.00 67 1015.4
20220811143059 82 297 0.0 0.0 0.00 0.00 0.00 69 1015.5
20220811141601 80 349 0.0 0.0 0.00 0.00 0.00 72 1015.4
20220811140049 79 268 0.0 0.0 0.00 0.00 0.00 74 1015.4
20220811134551 79 351 0.0 0.0 0.00 0.00 0.00 75 1015.3
20220811133046 78 1 0.0 0.0 0.00 0.00 0.00 76 1015.2
20220811131546 78 85 0.0 0.0 0.00 0.00 0.00 77 1015.1
20220811130051 77 350 0.0 0.0 0.00 0.00 0.00 78 1015.0
20220811124544 76 250 0.0 0.0 0.00 0.00 0.00 79 1015.0
20220811123048 76 250 0.0 0.0 0.00 0.00 0.00 81 1015.0
20220811121547 76 249 0.0 0.0 0.00 0.00 0.00 81 1014.9
20220811120046 75 247 0.0 0.0 0.00 0.00 0.00 81 1014.9
20220811114555 75 247 0.0 0.0 0.00 0.00 0.00 81 1014.7
20220811113049 75 247 0.0 0.0 0.00 0.00 0.00 81 1014.6
20220811111543 75 247 0.0 0.0 0.00 0.00 0.00 81 1014.6
20220811110046 75 247 0.0 0.0 0.00 0.00 0.00 81 1014.7
20220811104549 75 247 0.0 0.0 0.00 0.00 0.00 81 1014.6
20220811103044 75 247 0.0 0.0 0.00 0.00 0.00 81 1014.5
20220811101541 75 247 0.0 0.0 0.00 0.00 0.00 80 1014.4
20220811100040 75 247 0.0 0.0 0.00 0.00 0.00 80 1014.4
20220811094542 75 247 0.0 0.0 0.00 0.00 0.00 80 1014.5
20220811093051 75 247 0.0 0.0 0.00 0.00 0.00 80 1014.8
20220811091532 75 247 0.0 0.0 0.00 0.00 0.00 79 1014.8
20220811090035 75 247 0.0 0.0 0.00 0.00 0.00 79 1014.9
20220811084530 75 247 0.0 0.0 0.00 0.00 0.00 79 1014.9
20220811083029 76 247 0.0 0.0 0.00 0.00 0.00 79 1015.0
20220811081544 76 268 0.0 0.0 0.00 0.00 0.00 78 1014.9
20220811080045 76 268 0.0 0.0 0.00 0.00 0.00 78 1015.0
20220811074544 76 268 0.0 0.0 0.00 0.00 0.00 77 1015.0
20220811073053 77 268 0.0 0.0 0.00 0.00 0.00 76 1015.0
20220811071542 77 185 0.0 0.0 0.00 0.00 0.00 76 1015.1
20220811070023 77 187 0.0 0.0 0.00 0.00 0.00 76 1014.9
20220811064544 77 162 0.0 0.0 0.00 0.00 0.00 76 1015.1
20220811063019 77 274 0.0 0.0 0.00 0.00 0.00 76 1015.3
20220811061518 77 197 0.0 0.0 0.00 0.00 0.00 76 1015.4
20220811060022 77 146 0.0 0.0 0.00 0.00 0.00 75 1015.6
20220811054515 77 75 0.0 0.0 0.00 0.00 0.00 74 1015.8
20220811053015 78 76 0.0 0.0 0.00 0.00 0.00 74 1015.8
20220811051515 78 126 0.0 0.0 0.00 0.00 0.00 73 1015.8
20220811050008 78 61 0.0 0.0 0.00 0.00 0.00 73 1015.5
20220811044508 78 150 1.0 0.0 0.00 0.00 0.00 71 1015.5
20220811043008 79 199 1.0 0.0 0.00 0.00 0.00 69 1015.7
20220811041511 80 314 1.0 0.0 0.00 0.00 0.00 66 1015.5
20220811040013 80 135 1.0 0.0 0.00 0.00 0.00 65 1015.4
20220811034506 80 11 1.0 0.0 0.00 0.00 0.00 65 1015.2
20220811033009 81 178 2.0 0.0 0.00 0.00 0.00 65 1015.5